CCA227 ZSPD-ZGGG

Flight info

Callsign CCA227
Flight time 1h 44m
Altitude 36100
Route NXD81D/17L NXD W131 AKDIM A470 DUBGO W134 ELNEX A599 PLT W19 OLPAB OLPAB1
Aircraft B78X/H-SDE1E2E3FGHIJ2J3J4J5M1RWXY/LB1D1

Departure

Time 2026-05-06 14:35
Airport Shanghai Pudong International Airport (ZSPD)

Arrival

Time 2026-05-06 16:20
Airport Guangzhou Baiyun International Airport (ZGGG)
Time Latitude Longitude Altitude Speed Heading
2026-05-06 13:38 31.13695 121.80638 29 ft 0 kts 162°
2026-05-06 14:20 31.13696 121.80638 29 ft 2 kts 162°
2026-05-06 14:21 31.13711 121.80632 28 ft 2 kts 162°
2026-05-06 14:21 31.13727 121.80626 27 ft 2 kts 162°
2026-05-06 14:21 31.13742 121.80620 28 ft 2 kts 172°
2026-05-06 14:21 31.13759 121.80619 28 ft 2 kts 205°
2026-05-06 14:22 31.13772 121.80629 27 ft 2 kts 231°
2026-05-06 14:22 31.13782 121.80645 27 ft 2 kts 249°
2026-05-06 14:22 31.13782 121.80646 29 ft 0 kts 250°
2026-05-06 14:24 31.13779 121.80636 29 ft 2 kts 253°
2026-05-06 14:25 31.13774 121.80612 29 ft 4 kts 255°
2026-05-06 14:25 31.13765 121.80573 29 ft 6 kts 255°
2026-05-06 14:25 31.13753 121.80520 29 ft 7 kts 259°
2026-05-06 14:25 31.13769 121.80462 29 ft 8 kts 308°
2026-05-06 14:26 31.13820 121.80433 29 ft 9 kts 340°
2026-05-06 14:26 31.13884 121.80407 29 ft 11 kts 342°
2026-05-06 14:26 31.13960 121.80379 29 ft 12 kts 342°
2026-05-06 14:26 31.14045 121.80347 29 ft 14 kts 342°
2026-05-06 14:27 31.14141 121.80311 29 ft 15 kts 340°
2026-05-06 14:27 31.14178 121.80215 29 ft 14 kts 258°
2026-05-06 14:27 31.14149 121.80104 29 ft 15 kts 252°
2026-05-06 14:27 31.14115 121.79984 29 ft 16 kts 251°
2026-05-06 14:28 31.14079 121.79855 29 ft 17 kts 252°
2026-05-06 14:28 31.14046 121.79717 29 ft 18 kts 259°
2026-05-06 14:28 31.14069 121.79589 29 ft 15 kts 324°
2026-05-06 14:28 31.14169 121.79554 29 ft 16 kts 346°
2026-05-06 14:29 31.14278 121.79515 29 ft 17 kts 344°
2026-05-06 14:29 31.14394 121.79471 29 ft 18 kts 342°
2026-05-06 14:29 31.14519 121.79424 29 ft 19 kts 342°
2026-05-06 14:29 31.14650 121.79375 29 ft 20 kts 342°
2026-05-06 14:30 31.14785 121.79324 29 ft 21 kts 342°
2026-05-06 14:30 31.14923 121.79272 29 ft 21 kts 342°
2026-05-06 14:30 31.15064 121.79219 29 ft 22 kts 342°
2026-05-06 14:30 31.15208 121.79164 29 ft 22 kts 342°
2026-05-06 14:31 31.15355 121.79109 29 ft 22 kts 342°
2026-05-06 14:31 31.15505 121.79053 28 ft 23 kts 342°
2026-05-06 14:31 31.15657 121.78995 28 ft 23 kts 342°
2026-05-06 14:31 31.15811 121.78938 28 ft 23 kts 342°
2026-05-06 14:32 31.15946 121.78877 29 ft 15 kts 320°
2026-05-06 14:32 31.15958 121.78810 29 ft 0 kts 251°
2026-05-06 14:33 31.15957 121.78805 29 ft 2 kts 251°
2026-05-06 14:33 31.15949 121.78780 28 ft 5 kts 251°
2026-05-06 14:33 31.15936 121.78734 28 ft 7 kts 251°
2026-05-06 14:34 31.15912 121.78699 28 ft 3 kts 209°
2026-05-06 14:34 31.15885 121.78692 28 ft 4 kts 185°
2026-05-06 14:34 31.15858 121.78699 28 ft 0 kts 161°
2026-05-06 14:34 31.15828 121.78711 29 ft 18 kts 161°
2026-05-06 14:35 31.15494 121.78840 27 ft 85 kts 161°
2026-05-06 14:35 31.14716 121.79137 32 ft 148 kts 161°
2026-05-06 14:35 31.13647 121.79570 509 ft 169 kts 158°
2026-05-06 14:35 31.12554 121.79929 1676 ft 154 kts 167°
2026-05-06 14:36 31.11448 121.80256 2234 ft 178 kts 164°
2026-05-06 14:36 31.10175 121.80732 2851 ft 201 kts 164°
2026-05-06 14:36 31.08784 121.81220 3501 ft 223 kts 166°
2026-05-06 14:36 31.07221 121.81743 4258 ft 245 kts 167°
2026-05-06 14:37 31.05500 121.82314 5015 ft 268 kts 166°
2026-05-06 14:37 31.03681 121.82933 5651 ft 272 kts 167°
2026-05-06 14:37 31.01794 121.83153 5904 ft 274 kts 190°
2026-05-06 14:37 31.00037 121.82398 5904 ft 270 kts 215°
2026-05-06 14:38 30.98739 121.80858 5913 ft 268 kts 239°
2026-05-06 14:38 30.98034 121.78850 5912 ft 267 kts 251°
2026-05-06 14:38 30.97464 121.76787 5913 ft 267 kts 252°
2026-05-06 14:38 30.96908 121.74707 5909 ft 268 kts 252°
2026-05-06 14:39 30.96367 121.72636 5907 ft 267 kts 257°
2026-05-06 14:39 30.96412 121.70476 6046 ft 271 kts 279°
2026-05-06 14:39 30.96781 121.68304 6621 ft 274 kts 281°
2026-05-06 14:39 30.97203 121.66149 7844 ft 273 kts 282°
2026-05-06 14:40 30.97617 121.63974 9065 ft 276 kts 281°
2026-05-06 14:40 30.98020 121.61765 10201 ft 282 kts 281°
2026-05-06 14:40 30.98440 121.59458 10927 ft 300 kts 281°
2026-05-06 14:40 30.98894 121.57000 11536 ft 321 kts 281°
2026-05-06 14:41 30.99380 121.54369 12099 ft 341 kts 281°
2026-05-06 14:41 30.99884 121.51632 13001 ft 350 kts 281°
2026-05-06 14:41 31.00397 121.48836 13964 ft 355 kts 281°
2026-05-06 14:41 31.00916 121.46005 14869 ft 359 kts 281°
2026-05-06 14:42 31.01443 121.43144 15798 ft 363 kts 281°
2026-05-06 14:42 31.01976 121.40256 16710 ft 366 kts 280°
2026-05-06 14:42 31.02511 121.37340 17607 ft 370 kts 280°
2026-05-06 14:42 31.03051 121.34391 18455 ft 374 kts 280°
2026-05-06 14:43 31.03558 121.31622 19145 ft 377 kts 280°
2026-05-06 14:43 31.04107 121.28621 19893 ft 380 kts 280°
2026-05-06 14:43 31.04661 121.25592 20639 ft 384 kts 280°
2026-05-06 14:43 31.05218 121.22534 21373 ft 387 kts 280°
2026-05-06 14:44 31.05780 121.19451 22093 ft 391 kts 280°
2026-05-06 14:44 31.06342 121.16341 22789 ft 394 kts 278°
2026-05-06 14:44 31.06584 121.13161 23472 ft 395 kts 268°
2026-05-06 14:45 31.05609 121.06852 24580 ft 400 kts 254°
2026-05-06 14:45 31.04845 121.03714 25126 ft 403 kts 254°
2026-05-06 14:45 31.04064 121.00566 25666 ft 407 kts 254°
2026-05-06 14:45 31.03271 120.97386 26203 ft 410 kts 254°
2026-05-06 14:46 31.02478 120.94185 26735 ft 413 kts 254°
2026-05-06 14:46 31.01679 120.90954 27269 ft 416 kts 254°
2026-05-06 14:46 31.00870 120.87698 27790 ft 419 kts 254°
2026-05-06 14:46 31.00054 120.84424 28298 ft 423 kts 254°
2026-05-06 14:47 30.99243 120.81166 28817 ft 426 kts 254°
2026-05-06 14:47 30.98413 120.77836 29310 ft 429 kts 254°
2026-05-06 14:47 30.97577 120.74486 29816 ft 432 kts 254°
2026-05-06 14:47 30.96733 120.71111 30253 ft 436 kts 254°
2026-05-06 14:48 30.95882 120.67712 30663 ft 439 kts 254°
2026-05-06 14:48 30.95026 120.64292 31059 ft 441 kts 254°
2026-05-06 14:48 30.94161 120.60846 31459 ft 444 kts 255°
2026-05-06 14:48 30.93292 120.57385 31856 ft 447 kts 255°
2026-05-06 14:49 30.92416 120.53903 32244 ft 449 kts 255°
2026-05-06 14:49 30.91532 120.50403 32635 ft 452 kts 253°
2026-05-06 14:49 30.90363 120.46997 33017 ft 456 kts 245°
2026-05-06 14:49 30.88726 120.43821 33405 ft 460 kts 236°
2026-05-06 14:50 30.86650 120.40957 33774 ft 467 kts 228°
2026-05-06 14:50 30.84168 120.38492 34112 ft 473 kts 219°
2026-05-06 14:50 30.81484 120.36254 34428 ft 475 kts 220°
2026-05-06 14:50 30.78798 120.34030 34891 ft 473 kts 219°
2026-05-06 14:51 30.76109 120.31833 35342 ft 472 kts 219°
2026-05-06 14:51 30.73428 120.29638 35761 ft 471 kts 219°
2026-05-06 14:51 30.70753 120.27434 36034 ft 473 kts 219°
2026-05-06 14:52 30.65424 120.23060 36032 ft 467 kts 219°
2026-05-06 14:52 30.60105 120.18701 36036 ft 468 kts 219°
2026-05-06 14:53 30.54784 120.14347 36031 ft 468 kts 219°
2026-05-06 14:53 30.49458 120.09995 36032 ft 468 kts 219°
2026-05-06 14:54 30.44128 120.05648 36035 ft 469 kts 217°
2026-05-06 14:54 30.38482 120.01810 36046 ft 471 kts 214°
2026-05-06 14:55 30.32812 119.98014 36039 ft 471 kts 213°
2026-05-06 14:55 30.27134 119.94245 36037 ft 470 kts 214°
2026-05-06 14:56 30.21499 119.90493 36037 ft 470 kts 213°
2026-05-06 14:56 30.15829 119.86733 36035 ft 470 kts 213°
2026-05-06 14:57 30.10164 119.82975 36036 ft 469 kts 214°
2026-05-06 14:57 30.04502 119.79227 36054 ft 468 kts 214°
2026-05-06 14:58 29.98865 119.75441 36049 ft 469 kts 214°
2026-05-06 14:58 29.93216 119.71659 36043 ft 469 kts 214°
2026-05-06 14:59 29.87571 119.67885 36049 ft 469 kts 214°
2026-05-06 14:59 29.82112 119.63822 36052 ft 468 kts 218°
2026-05-06 15:00 29.76715 119.59614 36050 ft 469 kts 218°
2026-05-06 15:00 29.71332 119.55384 36052 ft 469 kts 218°
2026-05-06 15:01 29.65936 119.51167 36048 ft 469 kts 218°
2026-05-06 15:01 29.61067 119.46307 36063 ft 462 kts 231°
2026-05-06 15:02 29.56750 119.40831 36056 ft 462 kts 231°
2026-05-06 15:02 29.52447 119.35340 36058 ft 463 kts 231°
2026-05-06 15:03 29.48862 119.30781 36060 ft 464 kts 231°
2026-05-06 15:03 29.43809 119.24354 36056 ft 463 kts 231°
2026-05-06 15:04 29.40215 119.19792 36054 ft 464 kts 231°
2026-05-06 15:04 29.35882 119.14298 36047 ft 464 kts 231°
2026-05-06 15:05 29.31551 119.08824 36044 ft 464 kts 231°
2026-05-06 15:05 29.27213 119.03351 36048 ft 464 kts 231°
2026-05-06 15:06 29.22866 118.97871 36052 ft 465 kts 231°
2026-05-06 15:06 29.18549 118.92429 36062 ft 464 kts 231°
2026-05-06 15:07 29.14202 118.86960 36055 ft 464 kts 231°
2026-05-06 15:07 29.09854 118.81497 36062 ft 464 kts 231°
2026-05-06 15:08 29.05506 118.76039 36056 ft 465 kts 231°
2026-05-06 15:08 29.01147 118.70577 36063 ft 464 kts 231°
2026-05-06 15:09 28.96803 118.65139 36057 ft 463 kts 231°
2026-05-06 15:09 28.92453 118.59703 36053 ft 463 kts 231°
2026-05-06 15:10 28.88106 118.54277 36049 ft 464 kts 231°
2026-05-06 15:10 28.83752 118.48849 36050 ft 464 kts 231°
2026-05-06 15:11 28.79396 118.43426 36046 ft 464 kts 232°
2026-05-06 15:11 28.75032 118.38001 36048 ft 464 kts 232°
2026-05-06 15:12 28.70664 118.32578 36051 ft 464 kts 232°
2026-05-06 15:12 28.66322 118.27193 36047 ft 465 kts 232°
2026-05-06 15:13 28.61945 118.21774 36049 ft 465 kts 232°
2026-05-06 15:13 28.57565 118.16357 36051 ft 465 kts 232°
2026-05-06 15:14 28.53181 118.10942 36048 ft 466 kts 232°
2026-05-06 15:14 28.48791 118.05528 36050 ft 466 kts 232°
2026-05-06 15:15 28.44398 118.00117 36049 ft 466 kts 232°
2026-05-06 15:15 28.39948 117.94772 36052 ft 466 kts 230°
2026-05-06 15:16 28.35462 117.89452 36049 ft 466 kts 231°
2026-05-06 15:16 28.30943 117.84169 36052 ft 467 kts 230°
2026-05-06 15:17 28.26432 117.78873 36051 ft 466 kts 230°
2026-05-06 15:17 28.21917 117.73590 36061 ft 467 kts 230°
2026-05-06 15:18 28.17401 117.68310 36061 ft 466 kts 230°
2026-05-06 15:18 28.12885 117.63036 36069 ft 466 kts 230°
2026-05-06 15:19 28.08362 117.57762 36069 ft 466 kts 230°
2026-05-06 15:19 28.03843 117.52493 36064 ft 466 kts 230°
2026-05-06 15:20 27.99332 117.47200 36071 ft 468 kts 230°
2026-05-06 15:20 27.94813 117.41924 36076 ft 467 kts 230°
2026-05-06 15:21 27.90293 117.36644 36080 ft 466 kts 230°
2026-05-06 15:21 27.85764 117.31364 36075 ft 468 kts 230°
2026-05-06 15:22 27.81266 117.26126 36067 ft 468 kts 230°
2026-05-06 15:22 27.76748 117.20872 36072 ft 467 kts 230°
2026-05-06 15:23 27.72224 117.15617 36069 ft 467 kts 230°
2026-05-06 15:23 27.67687 117.10355 36059 ft 468 kts 230°
2026-05-06 15:24 27.63148 117.05096 36059 ft 468 kts 230°
2026-05-06 15:24 27.58605 116.99838 36063 ft 468 kts 230°
2026-05-06 15:25 27.54055 116.94580 36067 ft 469 kts 230°
2026-05-06 15:25 27.49506 116.89310 36056 ft 469 kts 231°
2026-05-06 15:26 27.45003 116.84005 36059 ft 469 kts 231°
2026-05-06 15:26 27.40473 116.78724 36045 ft 469 kts 231°
2026-05-06 15:27 27.35948 116.73433 36040 ft 469 kts 231°
2026-05-06 15:27 27.31415 116.68150 36046 ft 469 kts 231°
2026-05-06 15:28 27.26880 116.62866 36044 ft 470 kts 231°
2026-05-06 15:28 27.22341 116.57587 36043 ft 470 kts 230°
2026-05-06 15:29 27.17895 116.52235 36052 ft 469 kts 231°
2026-05-06 15:29 27.13433 116.46885 36053 ft 469 kts 232°
2026-05-06 15:30 27.09043 116.41544 36050 ft 469 kts 231°
2026-05-06 15:30 27.04600 116.36190 36052 ft 469 kts 231°
2026-05-06 15:31 27.00155 116.30819 36050 ft 470 kts 231°
2026-05-06 15:31 26.95705 116.25457 36051 ft 470 kts 231°
2026-05-06 15:32 26.89044 116.17414 36056 ft 469 kts 232°
2026-05-06 15:32 26.84622 116.12021 36060 ft 470 kts 231°
2026-05-06 15:33 26.80180 116.06644 36062 ft 470 kts 231°
2026-05-06 15:33 26.75746 116.01264 36052 ft 470 kts 231°
2026-05-06 15:34 26.71306 115.95893 36056 ft 470 kts 231°
2026-05-06 15:34 26.66866 115.90525 36054 ft 470 kts 231°
2026-05-06 15:35 26.62427 115.85166 36052 ft 470 kts 231°
2026-05-06 15:35 26.57986 115.79811 36054 ft 470 kts 231°
2026-05-06 15:36 26.53543 115.74459 36050 ft 470 kts 231°
2026-05-06 15:36 26.49128 115.69149 36053 ft 470 kts 231°
2026-05-06 15:37 26.44678 115.63803 36050 ft 470 kts 231°
2026-05-06 15:37 26.40231 115.58468 36055 ft 469 kts 231°
2026-05-06 15:38 26.35788 115.53141 36047 ft 469 kts 231°
2026-05-06 15:38 26.31344 115.47822 36049 ft 469 kts 231°
2026-05-06 15:39 26.26898 115.42507 36043 ft 469 kts 231°
2026-05-06 15:39 26.22451 115.37196 36042 ft 468 kts 231°
2026-05-06 15:40 26.18003 115.31891 36046 ft 469 kts 231°
2026-05-06 15:40 26.13552 115.26588 36046 ft 469 kts 231°
2026-05-06 15:41 26.09094 115.21283 36041 ft 469 kts 231°
2026-05-06 15:41 26.04634 115.15983 36059 ft 469 kts 231°
2026-05-06 15:42 26.00174 115.10689 36056 ft 469 kts 231°
2026-05-06 15:42 25.95706 115.05392 36050 ft 470 kts 231°
2026-05-06 15:43 25.91235 115.00099 36041 ft 470 kts 231°
2026-05-06 15:43 25.86767 114.94812 36050 ft 469 kts 231°
2026-05-06 15:44 25.82003 114.89831 36065 ft 476 kts 219°
2026-05-06 15:44 25.76018 114.86554 36068 ft 487 kts 201°
2026-05-06 15:45 25.69393 114.84794 36061 ft 490 kts 198°
2026-05-06 15:45 25.62724 114.83145 36058 ft 490 kts 198°
2026-05-06 15:46 25.56060 114.81471 36063 ft 489 kts 198°
2026-05-06 15:46 25.49414 114.79816 36063 ft 489 kts 198°
2026-05-06 15:47 25.42772 114.78159 36063 ft 489 kts 198°
2026-05-06 15:47 25.36128 114.76504 36067 ft 490 kts 198°
2026-05-06 15:48 25.29480 114.74851 36063 ft 489 kts 197°
2026-05-06 15:48 25.23993 114.73488 35853 ft 483 kts 197°
2026-05-06 15:49 25.20724 114.72677 35613 ft 480 kts 197°
2026-05-06 15:49 25.17478 114.71870 35374 ft 477 kts 197°
2026-05-06 15:49 25.14249 114.71069 35128 ft 474 kts 197°
2026-05-06 15:49 25.11040 114.70274 34879 ft 471 kts 197°
2026-05-06 15:50 25.07848 114.69483 34639 ft 469 kts 197°
2026-05-06 15:50 25.04665 114.68695 34391 ft 467 kts 197°
2026-05-06 15:50 25.01499 114.67911 34153 ft 466 kts 197°
2026-05-06 15:50 24.97323 114.66878 33821 ft 464 kts 197°
2026-05-06 15:51 24.94178 114.66100 33556 ft 462 kts 197°
2026-05-06 15:51 24.92062 114.65577 33366 ft 461 kts 197°
2026-05-06 15:51 24.88938 114.64805 33106 ft 460 kts 197°
2026-05-06 15:51 24.85819 114.64036 32845 ft 458 kts 197°
2026-05-06 15:52 24.82718 114.63274 32612 ft 456 kts 197°
2026-05-06 15:52 24.79621 114.62515 32368 ft 455 kts 197°
2026-05-06 15:52 24.76584 114.61770 32135 ft 453 kts 197°
2026-05-06 15:52 24.73509 114.61014 31910 ft 452 kts 197°
2026-05-06 15:53 24.70500 114.60120 31697 ft 445 kts 205°
2026-05-06 15:53 24.67723 114.58680 31498 ft 438 kts 213°
2026-05-06 15:53 24.65080 114.57029 31263 ft 437 kts 213°
2026-05-06 15:53 24.62444 114.55365 31040 ft 435 kts 214°
2026-05-06 15:54 24.59829 114.53702 30825 ft 434 kts 214°
2026-05-06 15:54 24.57208 114.52044 30620 ft 434 kts 213°
2026-05-06 15:54 24.54594 114.50401 30417 ft 433 kts 213°
2026-05-06 15:54 24.51984 114.48756 30218 ft 431 kts 213°
2026-05-06 15:55 24.49388 114.47118 30024 ft 430 kts 213°
2026-05-06 15:55 24.46794 114.45481 29800 ft 429 kts 213°
2026-05-06 15:55 24.44205 114.43851 29584 ft 428 kts 213°
2026-05-06 15:55 24.41624 114.42228 29366 ft 427 kts 213°
2026-05-06 15:56 24.39047 114.40608 29156 ft 426 kts 213°
2026-05-06 15:56 24.36481 114.38998 28960 ft 425 kts 213°
2026-05-06 15:56 24.33917 114.37392 28777 ft 423 kts 213°
2026-05-06 15:56 24.31365 114.35792 28592 ft 422 kts 213°
2026-05-06 15:57 24.28820 114.34197 28409 ft 421 kts 213°
2026-05-06 15:57 24.26278 114.32606 28226 ft 420 kts 213°
2026-05-06 15:57 24.23747 114.31021 28040 ft 419 kts 213°
2026-05-06 15:57 24.21222 114.29442 27858 ft 417 kts 213°
2026-05-06 15:58 24.18705 114.27869 27702 ft 416 kts 213°
2026-05-06 15:58 24.16194 114.26299 27552 ft 415 kts 213°
2026-05-06 15:58 24.13689 114.24733 27400 ft 414 kts 213°
2026-05-06 15:58 24.11206 114.23149 27243 ft 411 kts 218°
2026-05-06 15:59 24.09013 114.21192 27087 ft 405 kts 229°
2026-05-06 15:59 24.07228 114.18845 26933 ft 399 kts 239°
2026-05-06 15:59 24.05855 114.16226 26780 ft 396 kts 244°
2026-05-06 15:59 24.04553 114.13572 26641 ft 395 kts 244°
2026-05-06 16:00 24.03171 114.10977 26519 ft 395 kts 236°
2026-05-06 16:00 24.01365 114.08724 26513 ft 394 kts 225°
2026-05-06 16:00 23.99226 114.06863 26508 ft 392 kts 220°
2026-05-06 16:00 23.97049 114.05093 26485 ft 389 kts 220°
2026-05-06 16:01 23.94881 114.03348 26470 ft 386 kts 219°
2026-05-06 16:01 23.92724 114.01622 26450 ft 383 kts 219°
2026-05-06 16:01 23.90583 113.99903 26424 ft 380 kts 220°
2026-05-06 16:01 23.88439 113.98175 26172 ft 386 kts 219°
2026-05-06 16:02 23.86286 113.96446 25821 ft 382 kts 219°
2026-05-06 16:02 23.84156 113.94739 25476 ft 378 kts 219°
2026-05-06 16:02 23.82047 113.93049 25127 ft 374 kts 219°
2026-05-06 16:02 23.79967 113.91379 24784 ft 370 kts 219°
2026-05-06 16:03 23.77902 113.89722 24446 ft 367 kts 219°
2026-05-06 16:03 23.75851 113.88080 24121 ft 364 kts 219°
2026-05-06 16:03 23.73838 113.86469 23993 ft 354 kts 219°
2026-05-06 16:03 23.71887 113.84909 23952 ft 341 kts 219°
2026-05-06 16:04 23.70028 113.83420 23813 ft 332 kts 219°
2026-05-06 16:04 23.68181 113.81939 23588 ft 327 kts 219°
2026-05-06 16:04 23.66331 113.80457 22957 ft 334 kts 219°
2026-05-06 16:04 23.64444 113.78947 22315 ft 339 kts 219°
2026-05-06 16:05 23.62530 113.77419 21716 ft 343 kts 219°
2026-05-06 16:05 23.60593 113.75872 21118 ft 347 kts 219°
2026-05-06 16:05 23.58639 113.74311 20545 ft 350 kts 218°
2026-05-06 16:05 23.56671 113.72740 19968 ft 351 kts 218°
2026-05-06 16:06 23.54737 113.71197 19428 ft 353 kts 218°
2026-05-06 16:06 23.52755 113.69616 18866 ft 353 kts 218°
2026-05-06 16:06 23.50770 113.68033 18341 ft 354 kts 218°
2026-05-06 16:06 23.48785 113.66451 17728 ft 354 kts 218°
2026-05-06 16:07 23.46796 113.64866 17103 ft 354 kts 218°
2026-05-06 16:07 23.44814 113.63288 16507 ft 353 kts 218°
2026-05-06 16:07 23.42836 113.61712 15913 ft 352 kts 218°
2026-05-06 16:07 23.40863 113.60143 15322 ft 351 kts 218°
2026-05-06 16:08 23.38896 113.58578 14758 ft 349 kts 218°
2026-05-06 16:08 23.36938 113.57020 14190 ft 348 kts 218°
2026-05-06 16:08 23.34993 113.55474 13615 ft 347 kts 218°
2026-05-06 16:08 23.33047 113.53927 12990 ft 345 kts 218°
2026-05-06 16:09 23.31115 113.52393 12384 ft 343 kts 218°
2026-05-06 16:09 23.29197 113.50869 11785 ft 341 kts 218°
2026-05-06 16:09 23.27288 113.49354 11193 ft 338 kts 218°
2026-05-06 16:09 23.25392 113.47849 10610 ft 336 kts 218°
2026-05-06 16:10 23.23509 113.46355 10042 ft 334 kts 217°
2026-05-06 16:10 23.21684 113.44909 9415 ft 317 kts 217°
2026-05-06 16:10 23.19946 113.43531 8782 ft 302 kts 217°
2026-05-06 16:10 23.18295 113.42223 8134 ft 286 kts 217°
2026-05-06 16:11 23.16729 113.40981 7504 ft 272 kts 217°
2026-05-06 16:11 23.15228 113.39792 6889 ft 262 kts 217°
2026-05-06 16:11 23.13782 113.38646 6278 ft 253 kts 216°
2026-05-06 16:11 23.12377 113.37533 5650 ft 246 kts 216°
2026-05-06 16:12 23.10982 113.36498 5002 ft 240 kts 206°
2026-05-06 16:12 23.09429 113.35897 4371 ft 234 kts 202°
2026-05-06 16:12 23.08211 113.34791 3719 ft 233 kts 240°
2026-05-06 16:12 23.07929 113.33094 3184 ft 232 kts 276°
2026-05-06 16:13 23.08315 113.31448 2984 ft 215 kts 285°
2026-05-06 16:13 23.08916 113.30049 2929 ft 205 kts 312°
2026-05-06 16:13 23.10049 113.29235 2923 ft 184 kts 335°
2026-05-06 16:13 23.11237 113.28863 3033 ft 168 kts 347°
2026-05-06 16:14 23.12417 113.28570 3120 ft 182 kts 346°
2026-05-06 16:14 23.13626 113.28276 3026 ft 174 kts 347°
2026-05-06 16:14 23.14807 113.27989 3004 ft 174 kts 347°
2026-05-06 16:14 23.15981 113.27704 3008 ft 173 kts 347°
2026-05-06 16:15 23.17138 113.27423 2992 ft 167 kts 347°
2026-05-06 16:15 23.18294 113.27142 2996 ft 168 kts 347°
2026-05-06 16:15 23.19445 113.26861 3010 ft 172 kts 347°
2026-05-06 16:15 23.20576 113.26626 2991 ft 173 kts 352°
2026-05-06 16:16 23.21742 113.26715 2976 ft 167 kts 13°
2026-05-06 16:16 23.22926 113.27016 2793 ft 167 kts 14°
2026-05-06 16:16 23.24077 113.27304 2581 ft 170 kts 14°
2026-05-06 16:16 23.25197 113.27603 2367 ft 170 kts 15°
2026-05-06 16:17 23.26342 113.27910 2142 ft 167 kts 15°
2026-05-06 16:17 23.27454 113.28209 1932 ft 166 kts 15°
2026-05-06 16:17 23.28578 113.28511 1711 ft 166 kts 16°
2026-05-06 16:17 23.29690 113.28811 1493 ft 164 kts 16°
2026-05-06 16:18 23.30792 113.29109 1281 ft 162 kts 16°
2026-05-06 16:18 23.31885 113.29404 1067 ft 161 kts 15°
2026-05-06 16:18 23.32961 113.29696 876 ft 158 kts 15°
2026-05-06 16:18 23.34018 113.29983 673 ft 154 kts 15°
2026-05-06 16:19 23.35066 113.30266 471 ft 153 kts 14°
2026-05-06 16:19 23.36090 113.30543 272 ft 152 kts 14°
2026-05-06 16:19 23.37113 113.30817 104 ft 151 kts 11°
2026-05-06 16:19 23.38033 113.31059 61 ft 106 kts 14°
2026-05-06 16:20 23.38528 113.31194 57 ft 43 kts 14°
2026-05-06 16:20 23.38728 113.31189 59 ft 25 kts 347°
2026-05-06 16:20 23.38798 113.31172 57 ft 0 kts 347°